Location: Antist
(43.1184°N, 0.1270°E)
Time: 10:55:06
(UTC+00:00)

SKYMED 2 - Pass Details

Date: 19 January 2020
Orbit: 621 x 623 km, 97.9° (Epoch: 19 February)

Event Time Altitude Azimuth Distance (km) Brightness Sun altitude
Rises 17:26:54 0° 22° (NNE) 2,912 6.6 -6.3°
Reaches altitude 10° 17:29:18 10° 33° (NNE) 2,000 5.7 -6.7°
Maximum altitude 17:33:11 31° 96° (E) 1,085 4.4 -7.3°
Drops below altitude 10° 17:37:03 10° 160° (SSE) 1,985 6.2 -8.0°
Sets 17:39:25 0° 170° (S) 2,885 7.1 -8.4°
